THORAD AGENA D DEB

Satellite information

Favourite Embed

Satellite Type and Status

DEBRISIN ORBIT

Key statistics

Satellite THORAD AGENA D DEB at a glance.

Uptime

20339

Days in orbit

Revolutions

≈ 13.4

Per day

Orbit

PO

None

Inclination

99.9

Latest

Satellite identification and parameters

Extended collection of information and parameters for THORAD AGENA D DEB.

Object identification

Identified? True

Debris? True

Object name: THORAD AGENA D DEB

International designator: 1970-025KT

Object number (NORAD): 5388

Object ID (CCSDS): 5388

Country: UNITED STATES OF AMERICA (US)

Current information (Y/N): Y

Notes: NO ELEMENTS AVAILABLE

Orbital parameters

Period: 107.62 minutes

Inclination: 99.9189 deg

SMA: 7494.718 km

Apoapsis: 1218.202 km

Periapsis: 1014.963 km

RAAN: 284.5238 deg

Eccentricy: 0.01355881

Argument of periapsis: 258.7014 deg

Mean anomaly: 227.9889 deg

Mean motion: 13.38042331 rev/day

Mean motion (dot): 0.000006 rev/day2

B* drag term: 0.0011581614 1/REarth

Two-line elements (TLE)

Creation date: Dec. 11, 2025, 7:14 p.m.

Reference frame: TEME

Reference center: EARTH

Epoch: Dec. 11, 2025, 8:48 a.m. UTC

TLE line 0: 0 THORAD AGENA D DEB

TLE line 1: 1 05388U 70025KT 25345.36703480 .00000600 00000-0 11582-2 0 9993

TLE line 2: 2 05388 99.9189 284.5238 0135588 258.7014 227.9889 13.38042331700729

Live tracking on map

Real-time ground track for satellite THORAD AGENA D DEB.

In-orbit conjunctions

A list of the most updated potential collisions computed for object THORAD AGENA D DEB.

Target Orbit TCA Probability of collision Miss distance Type
P 76-5 SSO 2025-11-27 13:34:57 0.006850845 121.0 (m) PAYLOAD
DELTA 1 R/B SSO 2025-10-15 16:21:44 0.0005304232 513.0 (m) ROCKET BODY
COSMOS 2251 DEB LEO 2025-03-01 12:48:57 0.0002220288 129.0 (m) DEBRIS

Associated space launch

Meteorological research and development satellite

THORAD AGENA D DEB was lifted into orbit during the mission ‘Thorad SLV-2G Agena D | Nimbus 4’, on board a Thorad SLV-2G Agena D space rocket.

The launch took place on April 8, 1970, 8:17 a.m. from Space Launch Complex 2E.

For more information about the launch, click the button.

Launch to space Thorad SLV-2G Agena D | Nimbus 4
Thorad SLV-2G Agena D | Nimbus 4

Agency: N/A

Status: Launch Successful

Launch date: April 8, 1970, 8:17 a.m. UTC

Rocket: Thorad SLV-2G Agena D

Launch pad: Space Launch Complex 2E

Location: Vandenberg SFB, CA, USA

...

Latest news about this satellite

There are no fresh news available about this satellite. Check back as we update our databases every day.


Newsletter sign-up

Weekly statistics, charts and insights to help you stay on top of the space industry.